Showing default

COSMOS 2518, 42719

Orbit data source: Space-Track

COSMOS 2518, 42719 is a payload satellite owned by VVKO VKS (CIS) that was launched on Thu, 25 May 2017 UTC via a SOYUZ-2-1B launch vehicle from the Plesetsk Missile And Space Complex (PKMTR). Payloads include a variety of satellites, spacecraft, and rockets equipped with specific instruments for various scientific and technological missions. These include communications satellites like Starlink; space stations such as the ISS; scientific satellites like the Hubble; Earth observation satellites from companies like Planet Labs, Umbra, and HawkEye 360; GPS; miniature CubeSats for education and research; and military/defense satellites.

Loading next visibility...
COSMOS 2518 details
Identifier
42719, 2017-027A
Orbit
Molniya
Last TLE update1 day ago
Origin
Flag of CISVVKO VKS (CIS)
ManufacturerRKKE/KOMET
MissionOperational Defense Early Warn
Bus & Motor14F142, Unknown motor
Mass2,550 kg wet, ~2,000 kg dry
Launch date (UTC)
2017-05-25 (8 years ago)
Launch vehicle
SOYUZ-2-1B
Launch site
Plesetsk Missile And Space Complex (PKMTR)
Object type
Payload
Rocket body
Debris
Shape & HBRBox + 2 Pan, 10 m
Radar Cross Section14.304 m², Large (>1 m²)

Expand to show TLE details & history

TLE from 1 day ago
0 COSMOS 2518
1 42719U 17027A   24338.96002674 -.00001097  00000-0 -51585-2 0  9999
2 42719  63.2505 321.9749 7225280 271.3654  14.6608  2.01047716 55154
Epoch: 2024-12-03T23:02Z
Definitive object data (Epoch: 2024-12-03T23:02:26.31Z)
Latitude0.00027°
Longitude-96.94914°
Altitude6,060.381 km
Speed7.005 km/s
True Right ascension21h 27m 41s
True Declination0° 00' 01"
Sunlit
Object was in daylight at TLE epoch
Visualization TLE readout
Latitude62.97305°
Longitude-16.13546°
Altitude38,779.77 km
Speed1.621 km/s
Apparent Right ascension03h 13m 58s
Apparent Declination66° 08' 34"
Sunlit
Object is in daylight
Visualization observer readout
Local Sidereal Time01:34:32
Azimuth20.047° NNE
Elevation60.263°
Doppler factor1
Orbital elements
Apogee altitude39,297.662 km
Perigee altitude979.511 km
Semi-major axis26,516.724 km
Eccentricity0.722528
Inclination63.2505°
RAAN321.9749°
Arg. of periapsis271.3654°
True anomaly88.59685°
Mean anomaly14.6608°
Eccentric anomaly42.77483°
Mean motion0.50265 °/min
BSTAR-0.0051585
Orbital period716.21 mins
Loading maneuver chart data...
Loading historical data...
Loading historical data...
Loading historical data...
Loading historical data...
Loading historical data...
Loading historical data...
Loading historical data...
Other satellites on launch #27 in the year 2017 (2017-05-25 UTC)

COSMOS 2518 Visibility forecast

Observer location: undefined°, undefined

Span
Click to sort rows by Start time (UTC) header in descending order
Start Az.
Max El. time (UTC)
Max El. Az.
Max El.
End time (UTC)
End Az.
376 mins2024-12-05 03:37:16.049Z20.058° NNE2024-12-05 08:34:16.049Z75.264° E43.813°2024-12-05 09:53:16.049Z145.351° SSE
292 mins2024-12-05 22:45:16.049Z167.594° S2024-12-05 23:58:16.049Z74.645° E43.4°2024-12-06 03:37:16.049Z20.607° NNE
|